Other Surface Observations
Issued by NWS

Home | Current Version | Previous Version | Text Only | Print | Product List | Glossary On
Versions: 1 2 3 4 5 6 7 8 9 10 11 12 13 14 15 16 17 18 19 20 21 22 23 24 25 26 27 28 29 30 31 32 33 34 35 36 37 38 39 40 41 42 43 44 45 46 47 48 49 50
640
SXUS52 KTAE 220505
OSOTAE
OSOTAE
North Florida/South Alabama/Southwest Georgia Weather Roundup
National Weather Service Tallahassee Florida
1200 AM EST MON JAN 22 2018

Note: "fair" indicates few or no clouds below 12,000 feet with no
significant weather and/or obstructions to visibility.

!FLZ017-115-028-034-025-220600
...North Florida...

CITY           SKY/WX    TMP DP  RH WIND       PRES   REMARKS
TALLAHASSEE    FAIR      46  41  82 CALM      30.16F
APALACHICOLA   FAIR      48  47  96 CALM      30.15F
PERRY          FAIR      48  46  91 CALM      30.17F
CROSS CITY     FAIR      57  55  95 CALM      30.21S
JACKSONVILLE   FAIR      50  45  83 CALM      30.18F
$$

!FLZ112-006-005-002-011-220600
...Florida Panhandle...

CITY           SKY/WX    TMP DP  RH WIND       PRES   REMARKS
MARIANNA       FAIR      48  41  76 CALM      30.15F
BONIFAY        NOT AVBL
PANAMA CITY NW FAIR      47  43  86 NE5       30.13F WCI  45
TYNDALL AFB    FAIR      49  46  89 CALM      30.14F
TYND DRONE APT FAIR      48  47  94 CALM      30.14F
DE FUNIAK SPR  FAIR      53  45  74 CALM      30.14F
EGLIN AFB      PTCLDY    50  47  88 E5        30.11F
DESTIN         FAIR      60  53  77 E6        30.12F
HURLBURT       FAIR      55  52  92 E5        30.11F
CRESTVIEW      FAIR      44  40  85 CALM      30.14F
PENSACOLA      FAIR      57  54  89 E7        30.10F
$$

!ALZ063-066-220600
...South Alabama...

CITY           SKY/WX    TMP DP  RH WIND       PRES   REMARKS
DOTHAN         FAIR      52  42  69 MISG      30.17F
OZARK CAIRNS   FAIR      54  40  58 S5        30.14F
FT RUCKER HELI FAIR      51  43  72 CALM      30.14F
RUCKER HELI 3    N/A     55  41  59 S5        30.14S HAZE
RUCKER HELI 2  FAIR      52  42  71 CALM      30.14S
FLORALA APT    FAIR      54  43  66 S6        30.15F
ANDALUSIA      FAIR      56  42  59 SE3       30.13F
TROY           FAIR      55  42  61 CALM      30.14F
EUFALA         FAIR      47  44  90 CALM      30.14F
MOBILE         FAIR      56  52  86 SE8       30.10F
$$

!GAZ120>161-220600
...Southwest and South Central Georgia...

CITY           SKY/WX    TMP DP  RH WIND       PRES   REMARKS
THOMASVILLE    FAIR      48  43  81 CALM      30.18F
BAINBRIDGE       N/A     48  45  87 CALM      30.17F
MOODY AFB      FAIR      51  42  70 E5        30.16F
VALDOSTA       FAIR      50  42  74 SE3       30.18F
MOULTRIE       FAIR      50  43  76 CALM      30.18S
BLAKELY        FAIR      46  43  87 CALM      30.17F
ALBANY         FAIR      47  43  86 CALM      30.19S
TIFTON         FAIR      53  43  69 SE3       30.17S
FITZGERALD     FAIR      49  44  81 S3        30.20S
CORDELE        FAIR      48  43  81 CALM      30.19F
AMERICUS       FAIR      43  37  81 CALM      30.19F
HOMERVILLE     FAIR      46  41  81 CALM      30.19F
$$

!GMZ750-755-770-775-220600
...Coastal and Buoy Obs...

STATION/POSITION TIME  TEMP    WIND        PRES    VSBY  WAVE
                       AIR SEA DIR/SP/G                  HT/PER
                 (UTC) (F)     (DEG/KT/KT) (MB)    (MI)  (FT/S)
KEATON BEACH     0500   54      70/  5/  5 1020.8F
CEDAR KEY        0400   59      80/  8/  9 1021.9S
C TOWER          0500   63     100/  8/  9 1021.3F
APALACHICOLA BUO NOT AVBL
PANAMA CITY BUOY 0450   67 69  110/ 12/ 14 1019.5F         3/ 5
MOBILE BUOY      0450   68 67  120/ 14/ 17 1018.7F
ORANGE BCH AL BU NOT AVBL
$$




USA.gov is the U.S. government's official web portal to all federal, state and local government web resources and services.